Location: Unspecified
(0.0000°N, 0.0000°E)
Time: 11:50:38
(UTC+00:00)

ISS - Pass Details

Date: 20 March 2019
Orbit: 408 x 411 km, 51.6° (Epoch: 24 March)

Event Time Altitude Azimuth Distance (km) Brightness Sun altitude
Exits shadow 05:16:40 - 337° (NNW) 2,309 -0.2 -12.7°
Reaches altitude 10° 05:18:49 10° 345° (NNW) 1,458 -1.2 -12.2°
Maximum altitude 05:21:53 37° 54° (NE) 648 -2.3 -11.4°
Drops below altitude 10° 05:24:57 10° 124° (SE) 1,467 -0.1 -10.7°
Sets 05:27:08 0° 132° (SE) 2,330 0.8 -10.1°
